| Shipment Reliability and Frequency | Volume of Goods |
|---|---|
| Avg. Shipments per Month: 5.50 | Average TEU per month: 11.04 |
| Active Months: 12 | Average TEU per Shipment: 2.01 |
| Shipment Frequency Std. Dev.: 3.18 |
| Company Name | Shipments |
|---|---|
| BABO GROUP LLC | 88 shipments |
| GOYA FOODS INC | 74 shipments |
| GOYA FOODS OF TEXAS | 17 shipments |
| GOYA FOODS OF CALIFORNIA | 15 shipments |
| GOYA FOODS OF FLORIDA LLC | 11 shipments |
| GOYA FOODS OF TEXAS DISTRIBUTION CE | 2 shipments |
| PATAGONIA DISTRIBUTION LLC | 1 shipments |
| HS Code | Shipments |
|---|---|
| 190590 Food preparations; bakers' wares n.e.c. in heading no. 1605, whether or not containing cocoa; communion wafers, empty cachets suitable for pharmaceutical use, sealing wafers, rice papers and similar products | 84 shipments |
| 843810 Machinery; industrial, for bakery and for the manufacture of macaroni, spaghetti or similar products | 37 shipments |
| 030624 Crustaceans; in shell or not, live, fresh, chilled, frozen, dried, salted or in brine; smoked, cooked or not before or during smoking; in shell, steamed or boiled, whether or not chilled, frozen, dried, salted or in brine; edible flours, meals, pellets | 36 shipments |
| 190590.0 Bread, pastry, cakes, biscuits, other bakers' wares, whether or not containing cocoa; communion wafers, empty cachets suitable for pharmaceutical use, sealing wafers, rice paper and similar products | 33 shipments |
| 190230 Food preparations; pasta (excluding stuffed), cooked or otherwise prepared | 4 shipments |
| 843810.0 Machinery n.e.c. in this chapter, for the industrial preparation or manufacture of food or drink; other than machinery for extraction or preparation of animal or fixed vegetable fats or oils | 4 shipments |
| 190120 Food preparations; mixes and doughs for the preparation of bread, pastry, cakes, biscuits and other bakers' wares | 3 shipments |
| 110710 Malt; not roasted | 2 shipments |
| 110319 Cereal groats and meal; n.e.c. in heading no. 1103 | 1 shipments |
| 150990 Vegetable oils; olive oil and its fractions, other than virgin, whether or not refined, but not chemically modified | 1 shipments |
| 190540 Food preparations; rusks, toasted bread and similar toasted products, whether or not containing cocoa | 1 shipments |
| 847230 Office machines; for sorting or folding mail or for inserting mail in envelopes or bands, machines for opening, closing or sealing mail and machines for affixing or cancelling postage stamps | 1 shipments |
| 847230.0 Office machines; not elsewhere classified | 1 shipments |
| Arrival Date | Bill Of Lading | Consignee | Weight | HS Code | Description |
|---|---|---|---|---|---|
| 2026-03-28 | MEDUM0659067 | GOYA FOODS INC | 24220.0 kg | 190590.0 | FROZEN PASTRY |
| 2026-03-24 | MEDUM0662657 | GOYA FOODS OF TEXAS | 21852.0 kg | 190590.0 | FROZEN PASTRY |
| 2026-03-24 | MEDUM0662665 | GOYA FOODS OF TEXAS | 21852.0 kg | 190590.0 | FROZEN PASTRY |
| 2026-03-11 | MEDUM0653862 | GOYA FOODS INC | 19484.0 kg | 190590.0 | FROZEN PASTRY |
| 2026-03-11 | MEDUM0653987 | GOYA FOODS INC | 24220.0 kg | 190590.0 | FROZEN PASTRY |
| 2026-03-11 | MEDUM0658028 | GOYA FOODS INC | 24220.0 kg | 190590.0 | FROZEN PASTRY |
| 2026-03-10 | MEDUM0651692 | GOYA FOODS OF TEXAS | 21852.0 kg | 190590.0 | FROZEN PASTRY |
| 2026-03-05 | MEDUM0646650 | GOYA FOODS OF FLORIDA LLC | 24220.0 kg | 190590.0 | FROZEN PASTRY |
| 2026-03-03 | MEDUM0651551 | GOYA FOODS OF TEXAS | 21852.0 kg | 190590.0 | FROZEN PASTRY |
| 2026-02-20 | MEDUM0651528 | GOYA FOODS OF CALIFORNIA | 18300.0 kg | 190590.0 | FROZEN PASTRY |
| 2026-02-13 | MEDUM0646635 | GOYA FOODS OF FLORIDA LLC | 24220.0 kg | 190590.0 | FROZEN PASTRY |
| 2026-02-10 | MEDUM0648540 | GOYA FOODS INC | 24220.0 kg | 190590.0 | FROZEN PASTRY |
| 2026-02-10 | MEDUM0646189 | GOYA FOODS INC | 19484.0 kg | 190590.0 | FROZEN PASTRY |
| 2026-02-10 | MEDUM0651544 | GOYA FOODS OF TEXAS | 21852.0 kg | 190590.0 | FROZEN PASTRY |
| 2026-02-10 | MEDUM0651536 | GOYA FOODS OF TEXAS | 21852.0 kg | 190590.0 | FROZEN PASTRY |
| 2026-02-07 | HLCUMVD251203949 | BABO GROUP LLC | 23660.0 kg | 843810.0 | FROZEN BAKERY PRODUCTS RH |
| 2026-01-29 | MEDUM0647666 | GOYA FOODS INC | 19484.0 kg | 190590.0 | FROZEN PASTRY |
| 2026-01-17 | MEDUM0641396 | GOYA FOODS OF CALIFORNIA | 18300.0 kg | 190590.0 | FROZEN PASTRY |
| 2026-01-11 | MEDUM0641404 | GOYA FOODS INC | 24220.0 kg | 190590.0 | FROZEN PASTRY |
| 2026-01-06 | MEDUM0644663 | GOYA FOODS OF TEXAS | 21852.0 kg | 190590.0 | FROZEN PASTRY |
| 2025-12-26 | MEDUM0636693 | GOYA FOODS INC | 19484.0 kg | 190590.0 | FROZEN PASTRY |
| 2025-12-23 | MEDUM0634573 | GOYA FOODS OF CALIFORNIA | 18300.0 kg | 190590.0 | FROZEN PASTRY |
| 2025-12-20 | MEDUM0633690 | GOYA FOODS OF FLORIDA LLC | 24220.0 kg | 190590.0 | FROZEN PASTRY |
| 2025-12-19 | ZIMUMVD8016436 | BABO GROUP LLC | 29626.43 kg | 847230.0 | ATT: ROLDAN GUTIERREZ E-MAIL: ROLDAN@IMPERI ALFREIGHT.COM FROZEN BAKERY PRODUCTS REFERENCE TYPE (ABT) - |
| 2025-12-17 | MEDUM0633708 | GOYA FOODS OF CALIFORNIA | 18300.0 kg | 190590.0 | FROZEN PASTRY |
| 2025-12-17 | MEDUM0636396 | GOYA FOODS OF TEXAS | 21667.0 kg | 190590.0 | FROZEN PASTRY |
| 2025-12-14 | MEDUM0635919 | GOYA FOODS OF TEXAS | 21852.0 kg | 190590.0 | FROZEN PASTRY |
| 2025-12-12 | ZIMUMVD8016267 | BABO GROUP LLC | 30014.26 kg | 843810.0 | CARTONS FROZEN BAKERY PRODUCTS RH FREI GHT PREPAID |
| 2025-11-05 | MEDUM0625761 | GOYA FOODS INC | 19461.0 kg | 190590.0 | FROZEN PASTRY |
| 2025-11-01 | MEDUM0618063 | GOYA FOODS OF FLORIDA LLC | 24220.0 kg | 190590.0 | FROZEN PASTRY |
| 2025-10-22 | MEDUM0622636 | GOYA FOODS INC | 19484.0 kg | 190590.0 | FROZEN PASTRY |
| 2025-10-14 | MEDUM0620812 | GOYA FOODS OF TEXAS | 21852.0 kg | 190590.0 | FROZEN PASTRY |
| 2025-09-29 | MEDUM0612793 | GOYA FOODS OF CALIFORNIA | 18300.0 kg | 190590.0 | FROZEN PASTRY |
| 2025-09-18 | MEDUM0608973 | GOYA FOODS INC | 19461.0 kg | 190590.0 | FROZEN PASTRY |
| 2025-09-18 | MEDUM0610086 | BABO GROUP LLC | 22560.0 kg | 843810.0 | FROZEN BAKERY PRODUCTS |
| 2025-09-10 | MEDUM0609476 | GOYA FOODS OF CALIFORNIA | 16150.0 kg | 190590.0 | FROZEN PASTRY |
| 2025-09-05 | ZIMUMVD8015667 | BABO GROUP LLC | 27529.44 kg | 843810.0 | RH FROZEN BAKERY PRODUCTS FREIGHT PREPAID TEMPERATURA - C |
| 2025-09-04 | MEDUM0611134 | GOYA FOODS INC | 24220.0 kg | 190590.0 | FROZEN PASTRY |
| 2025-08-03 | MEDUM0603586 | GOYA FOODS INC | 19484.0 kg | 190590 | FROZEN PASTRY |
| 2025-07-30 | MEDUM0598331 | GOYA FOODS OF CALIFORNIA | 18300.0 kg | 190590 | FROZEN PASTRY |
| 2025-07-30 | MEDUM0600350 | GOYA FOODS INC | 19461.0 kg | 190590 | FROZEN PASTRY |
| 2025-07-29 | MEDUM0598950 | GOYA FOODS OF FLORIDA LLC | 24220.0 kg | 190590 | FROZEN PASTRY |
| 2025-07-29 | MEDUM0598513 | GOYA FOODS OF FLORIDA LLC | 24220.0 kg | 190590 | FROZEN PASTRY |
| 2025-07-29 | MEDUM0598943 | GOYA FOODS OF TEXAS | 21852.0 kg | 190590 | FROZEN PASTRY |
| 2025-07-29 | MEDUM0595741 | GOYA FOODS OF TEXAS | 21852.0 kg | 190590 | FROZEN PASTRY |
| 2025-07-07 | MEDUM0598315 | GOYA FOODS INC | 19461.0 kg | 190590 | FROZEN PASTRY |
| 2025-07-07 | MEDUM0595329 | GOYA FOODS INC | 24220.0 kg | 190590 | FROZEN PASTRY |
| 2025-07-05 | MEDUM0590528 | GOYA FOODS OF FLORIDA LLC | 24220.0 kg | 190590 | FROZEN PASTRY |
| 2025-07-01 | MEDUM0590536 | GOYA FOODS OF TEXAS | 21852.0 kg | 190590 | FROZEN PASTRY |
| 2025-07-01 | MEDUM0590692 | GOYA FOODS OF TEXAS | 21852.0 kg | 190590 | FROZEN PASTRY |